sat.trackr.live / text

‹ back to catalog

COSMOS 2615

NORAD 68826 · 2026-090A

PAYLOAD ACTIVE UNKNOWN

§ Identity

Operator
Country
CIS
Launch date
2026-04-23
Launch site
PLMSC
Launch vehicle
Mass (kg)
RCS (m²)

External: N2YO · Heavens-Above · Gunter

§ Orbital elements

Epoch: 2026-09-20T01:42:46.181376Z

Period
90.75 min
Inclination
96.6342°
Eccentricity
0.0010577
Mean motion
15.86746388 rev/d
Perigee alt
304.3 km
Apogee alt
318.5 km
Semi-major
6,689.5 km
B*
1.4202e-4
RAAN
178.2239°
Arg perigee
49.1427°
Mean anomaly
311.0761°
Rev number
2,371

§ Raw data

COSMOS 26151 68826U 26090A   26263.07136784  .00036125  00000+0  14202-3 0  99902 68826  96.6342 178.2239 0010577  49.1427 311.0761 15.86746388 23719

JSON: /api/v1/satellites/68826 · /tle

For live sub-satellite position, see the globe view (requires WebGL).

§ Visibility from observer

Set your observer location to see the next 7 days of passes ≥ 10°. The values pass through the URL so the page stays shareable.

No JS? Fill the form by hand. The geolocation button needs JavaScript.